Regional Weather Roundup
Issued by NWS

Home | Current Version | Previous Version | Text Only | Print | Product List | Glossary Off
Versions: 1 2 3 4 5 6 7 8 9 10 11 12 13 14 15 16 17 18 19 20 21 22 23 24 25 26 27 28 29 30 31 32 33 34 35 36 37 38 39 40 41 42 43 44 45 46 47 48 49 50

829
ASUS43 KLSX 041107
RWRMO

WEATHER SUMMARY FOR MISSOURI
NATIONAL WEATHER SERVICE SPRINGFIELD MO
500 AM CST SUN DEC 04 2016

NOTE: "FAIR" INDICATES FEW OR NO CLOUDS BELOW 12,000 FEET WITH NO
       SIGNIFICANT WEATHER AND/OR OBSTRUCTIONS TO VISIBILITY.
       CURRENT SKY AND/OR WEATHER CONDITIONS ARE NOT AVAILABLE FOR
       CHILLICOTHE AND FARMINGTON.

MOZ001>031-035>038-043-044-053-054-041200-
...NORTHERN AND WESTERN MISSOURI...

CITY           SKY/WX    TMP DP  RH WIND       PRES   REMARKS
KANSAS CTY INT LGT RAIN  39  36  89 S12       30.02S FOG
KANSAS C DTWN  LGT RAIN  40  39  97 S6        30.03S FOG
LEE`S SUMMIT   LGT RAIN  39  39 100 S6        30.02S
ST JOSEPH      LGT RAIN  40  39  97 S5        30.03F FOG
CHILLICOTHE      N/A     38  37  97 SE7       30.06F
KIRKSVILLE     MIX PCPN  35  34  96 SE8       30.06F FOG     WCI  29

$$
MOZ066>068-077>081-088>096-101>105-041200-
...SOUTHWEST MISSOURI...

CITY           SKY/WX    TMP DP  RH WIND       PRES   REMARKS
SPRINGFIELD    CLOUDY    38  37  97 SE10      29.99F FOG
JOPLIN         LGT RAIN  40  40 100 SE5       30.02S FOG
BRANSON        CLOUDY    37  37 100 SE9       30.00S FOG

$$
MOZ032>034-039>042-045>050-055>058-069>072-041200-
...CENTRAL MISSOURI...

CITY           SKY/WX    TMP DP  RH WIND       PRES   REMARKS
COLUMBIA       LGT RAIN  37  36  96 E8        30.05F FOG
JEFFERSON CITY LGT RAIN  38  36  92 E7        30.06F FOG
ROLLA          LGT RAIN  36  35  96 E6        30.03F FOG
SEDALIA        LGT RAIN  38  36  92 E8        30.04F FOG
WHITEMAN AFB   DRIZZLE   37  37 100 SE7       30.02F FOG
WARRENSBURG    LGT RAIN  37  36  93 SE8       30.03F
OSAGE BEACH    LGT RAIN  37  36  96 E5        30.04F FOG

$$
MOZ051-052-059>065-041200-
...EAST CENTRAL MISSOURI...

CITY           SKY/WX    TMP DP  RH WIND       PRES   REMARKS
ST LOUIS INTL  CLOUDY    39  33  79 E7        30.11F
SPIRIT OF STL  CLOUDY    38  36  92 E5        30.10F
ST CHARLES     CLOUDY    38  35  89 E9        30.11F

$$
MOZ072>076-082>087-097>100-106>115-041200-
...SOUTH CENTRAL AND SOUTHEAST MISSOURI...

CITY           SKY/WX    TMP DP  RH WIND       PRES   REMARKS
CAPE GIRARDEAU CLOUDY    39  35  86 E6        30.08F
FARMINGTON     MIX PCPN  36  35  96 E3        30.07F FOG
POPLAR BLUFF   CLOUDY    39  38  96 NE8       30.06F FOG
WEST PLAINS    CLOUDY    37  36  96 E6        30.02F FOG

$$



USA.gov is the U.S. government's official web portal to all federal, state and local government web resources and services.